RH
73 72 74 76 78 76 77 78 80 78 79 75 74 77 82 83 89 86 80 75 69 67 66 62 61 64 42 40 45 28 49 37 32 34 29 30 32 30 30 26 28 35 36 33 35 33 31
73 76 76 72 78 78 77 75 82 80 79 75 75 71 76 79 82 82 80 75 69 64 64 63 63 63 43 43 30 29 30 32 32 33 34 32 33 28 26 27 29 31 29 28 33 31 31
76 77 78 78 80 80 78 80 81 78 80 73 75 80 82 81 81 81 75 69 66 62 62 58 62 36 43 45 33 34 31 38 38 37 34 38 37 25 31 28 28 24 27 30 34 34 38
77 76 76 76 77 80 81 80 80 78 77 76 79 83 82 83 80 75 68 65 68 70 58 56 62 38 48 35 39 34 33 35 31 32 38 39 40 35 31 32 31 34 30 36 36 39 43
77 78 78 78 77 76 76 82 81 80 73 72 75 74 74 73 71 67 64 65 68 64 56 52 40 39 47 45 40 38 37 38 35 35 32 24 35 38 42 42 46 38 34 33 40 43 46
76 77 78 79 79 79 79 78 79 78 78 78 76 76 72 67 63 60 60 62 65 64 51 31 28 39 41 44 46 43 38 38 33 37 39 41 65 66 61 63 60 57 53 36 35 49 49
76 77 78 78 79 80 80 81 81 80 79 80 79 78 71 68 66 69 62 63 57 56 48 54 56 50 46 42 44 48 43 41 37 36 39 52 78 81 71 62 48 50 49 46 40 46 47
75 74 74 74 75 77 79 80 81 80 79 79 80 80 74 73 70 69 67 63 72 53 52 46 46 48 47 51 50 52 45 39 38 44 49 65 77 61 55 53 49 50 49 47 46 49 50
75 76 78 78 78 77 77 79 81 82 81 80 81 82 79 71 66 66 68 71 58 55 48 46 46 51 50 49 62 61 51 47 50 61 68 73 63 50 53 48 45 54 54 61 70 63 57
80 80 81 81 81 82 81 80 81 83 84 82 80 81 71 73 60 61 68 61 59 59 77 46 48 48 48 53 58 51 52 54 50 63 63 64 56 54 60 52 52 52 58 63 65 79 66
80 80 82 83 84 84 83 82 83 84 86 84 82 80 75 72 58 69 68 63 60 62 57 42 49 40 45 56 53 47 52 49 58 53 63 63 64 64 61 59 55 61 62 67 69 88 86
82 83 82 84 85 86 86 84 83 84 87 87 82 79 75 61 74 73 68 70 68 74 45 55 50 51 54 52 53 51 51 47 54 57 60 64 58 65 63 54 58 58 68 74 80 93 93
82 82 84 85 86 88 88 87 84 84 84 86 81 79 65 58 75 70 72 77 75 72 46 58 60 49 50 54 50 50 52 51 64 61 76 71 70 66 60 70 66 73 88 82 61 95 75
82 83 84 84 85 86 86 88 84 84 83 83 82 77 71 63 77 75 78 53 59 45 55 50 55 50 55 53 51 51 51 58 45 53 92 85 58 74 65 68 78 71 75 79 30 77 70
86 85 87 86 84 84 86 87 88 88 88 84 80 76 76 70 71 78 66 88 74 60 46 54 54 57 58 52 51 50 52 53 54 48 60 60 74 65 60 62 66 74 84 67 67 77 76
86 86 86 85 82 83 84 87 87 87 86 82 83 73 79 63 73 81 75 75 70 58 57 51 57 48 53 50 55 49 52 53 59 52 55 52 55 60 69 66 71 77 62 80 90 62 59
84 86 87 86 87 87 86 86 85 86 82 82 82 70 68 62 77 70 90 80 65 54 58 56 55 45 42 44 44 38 53 55 51 55 55 53 48 62 66 79 80 76 73 68 64 66 59
84 86 87 88 88 88 87 86 85 86 82 74 76 69 62 71 70 82 82 65 63 60 57 55 54 50 48 44 41 41 49 57 49 52 56 63 57 76 61 63 59 66 66 60 74 60 58
81 86 88 89 89 88 88 86 85 84 80 87 60 55 70 63 81 83 69 61 62 58 53 50 53 50 47 46 46 42 52 56 55 56 61 57 58 75 63 62 58 58 56 61 60 76 70
74 88 90 90 90 89 88 86 85 83 83 83 75 84 74 64 64 65 69 62 67 63 57 51 51 52 50 50 49 52 47 60 61 61 62 60 62 49 64 52 49 68 55 57 64 90 66
85 85 91 92 91 89 89 87 86 83 83 79 78 77 67 75 61 53 52 49 60 66 60 58 58 53 50 46 46 48 44 59 64 67 68 64 75 70 62 59 61 58 53 51 75 61 58
84 86 89 93 93 91 90 87 86 84 84 77 75 72 77 68 57 58 51 51 49 51 52 58 60 45 46 49 44 39 40 43 44 79 72 66 65 72 72 58 61 67 58 56 48 47 58
86 87 89 91 94 92 90 88 86 86 83 85 85 75 75 77 68 70 55 46 50 49 49 46 50 51 50 48 55 54 53 52 52 64 71 74 78 79 80 71 68 71 60 55 55 50 44
87 89 90 90 94 94 90 87 86 86 89 91 86 89 83 77 67 61 59 55 53 51 55 49 50 55 57 52 50 58 69 60 59 57 56 64 70 77 88 77 81 52 41 37 44 44 42
88 88 89 90 93 95 93 86 85 83 87 91 94 91 84 84 74 62 61 64 62 62 59 55 53 56 54 54 66 74 68 58 61 67 66 55 66 81 87 89 65 46 40 40 41 40 37
91 90 89 91 93 93 95 89 84 81 85 93 95 94 91 86 74 57 60 62 74 79 70 63 62 63 64 70 74 84 82 68 67 73 62 59 61 75 88 84 79 48 40 37 40 49 52
91 91 90 91 91 92 94 93 86 80 80 94 95 89 94 92 77 63 69 72 64 65 70 63 69 75 71 86 89 89 82 62 68 75 85 80 84 85 88 92 75 47 37 41 61 54 52
92 92 92 92 92 93 93 94 90 82 82 92 95 88 91 96 88 72 64 71 67 67 69 64 68 75 83 87 90 83 85 72 72 68 78 82 91 94 90 93 89 46 46 50 50 54 44
93 92 93 94 94 94 94 95 91 84 84 88 96 81 80 95 80 76 69 68 66 69 74 74 72 74 73 84 90 89 86 77 71 74 61 69 60 75 67 67 50 47 51 45 50 52 56
Wind_Speed
24 23 24 26 27 21 17 15 16 13 16 16 16 19 22 23 23 15 15 11 10 7 7 4 4 6 4 6 2 7 10 8 2 3 4 4 2 2 4 4 3 4 2 5 3 3 1
24 21 23 25 24 22 20 17 20 20 17 16 16 18 17 19 22 7 10 10 8 6 4 4 5 6 1 6 6 8 5 5 5 4 5 7 3 3 5 4 5 2 5 4 1 0 1
23 23 22 23 24 22 22 21 20 20 18 12 12 11 12 14 15 6 9 6 5 4 4 4 6 1 9 3 4 9 2 2 3 2 4 3 4 7 2 4 2 2 2 0 2 1 0
21 22 22 22 21 19 18 18 17 16 14 14 13 9 13 12 9 7 7 6 3 1 5 4 3 3 4 3 5 7 5 2 5 6 5 1 5 7 5 1 2 2 4 2 2 2 2
21 21 22 23 22 21 17 18 18 16 15 14 11 11 10 7 6 7 6 3 1 6 7 7 4 5 3 0 3 6 4 2 1 3 3 1 5 4 3 4 5 4 1 3 2 2 2
19 20 20 20 20 20 22 21 18 17 16 14 11 9 6 6 6 7 4 6 8 7 6 4 1 6 5 3 3 5 4 4 3 2 4 6 6 5 6 6 4 2 2 4 2 1 2
18 18 18 18 18 17 17 19 18 16 15 13 12 9 9 4 4 1 6 3 4 7 9 5 1 5 2 5 2 6 4 6 0 6 4 4 10 2 2 2 0 1 0 3 1 2 7
18 18 18 18 17 17 17 16 16 15 14 14 12 8 6 1 3 2 2 2 1 3 6 7 6 4 1 1 3 9 8 3 3 4 3 8 4 1 3 1 0 1 3 4 5 2 4
18 17 18 18 18 18 17 17 16 14 13 13 13 9 4 4 3 5 5 1 4 4 7 4 3 3 4 5 4 7 6 3 6 6 4 7 3 2 1 5 4 2 1 1 3 8 4
17 18 18 18 18 19 19 18 17 16 14 12 12 11 6 2 3 2 2 3 4 3 7 8 4 4 3 2 4 3 3 2 7 4 4 5 2 3 2 2 1 1 2 2 4 6 3
17 18 18 18 18 18 18 18 17 16 14 13 12 12 7 3 3 3 1 3 4 4 7 5 4 2 4 4 3 6 2 5 4 3 6 4 3 2 4 2 1 2 0 1 1 2 4
18 18 18 18 18 18 18 18 17 16 14 12 11 12 6 4 4 1 3 4 4 10 2 4 2 0 1 1 1 1 2 5 2 5 6 3 1 1 1 1 1 1 4 3 3 3 4
18 19 18 19 18 18 18 18 18 16 14 11 10 11 5 2 2 3 2 3 9 8 3 3 1 2 3 1 2 1 3 3 2 5 3 2 1 1 1 2 3 7 6 5 7 5 5
18 18 18 19 19 20 20 19 19 18 14 10 10 7 3 2 2 2 2 8 9 2 2 2 1 1 2 3 2 0 2 2 5 3 4 4 7 1 0 2 2 2 6 7 4 1 6
16 16 17 18 19 21 21 22 20 18 13 10 7 2 2 4 3 2 6 7 7 1 1 2 1 1 1 1 1 2 3 2 3 5 5 2 3 1 3 3 3 1 1 3 3 3 4
16 17 18 18 20 20 20 21 22 20 14 9 2 2 3 4 2 4 8 4 3 2 4 1 1 1 2 3 1 2 3 2 2 2 2 1 2 1 0 3 2 1 0 2 3 1 4
17 18 18 19 20 21 22 21 22 22 18 4 3 4 4 3 3 7 5 3 3 1 3 3 4 2 3 2 1 1 2 2 2 1 3 2 4 4 3 4 7 1 2 2 2 5 4
15 17 19 21 22 23 23 23 23 22 20 5 2 4 3 3 6 3 3 2 1 1 2 2 2 3 3 2 2 3 2 2 4 1 2 0 3 3 6 1 1 3 3 5 5 3 2
13 13 15 17 19 22 23 25 24 22 13 2 3 1 3 5 4 2 1 2 3 1 2 4 2 4 2 2 2 3 3 2 3 3 2 1 1 4 7 5 3 2 4 4 3 3 5
13 11 13 14 16 19 24 25 26 25 17 3 4 4 6 6 1 5 2 2 2 1 1 1 2 1 1 1 2 1 1 1 2 2 2 3 1 6 7 5 3 4 5 6 6 3 4
12 12 10 12 13 15 19 24 28 29 26 3 4 1 3 4 5 4 1 0 3 1 0 0 1 2 0 2 3 2 2 2 1 3 1 4 3 3 6 8 6 9 11 10 11 11 9
12 11 12 10 12 13 15 18 22 28 23 6 3 3 3 2 2 5 5 3 1 2 4 2 3 3 3 3 2 2 1 4 4 1 3 1 3 3 6 7 6 7 12 13 15 15 16
10 10 11 11 10 11 12 14 18 22 15 4 3 3 3 3 3 4 3 3 3 3 3 2 1 1 2 3 1 2 3 2 3 6 6 5 2 3 6 6 8 9 8 11 6 6 13
10 8 10 10 10 10 9 11 13 16 13 2 1 1 3 2 3 3 1 2 3 4 3 1 1 1 1 4 5 2 3 4 4 5 5 5 4 3 5 5 2 6 2 3 8 7 10
11 10 10 11 10 10 9 7 10 11 13 3 2 3 2 2 2 2 3 3 3 2 2 2 3 2 4 4 3 3 1 2 1 3 3 3 5 2 2 2 9 8 2 4 5 5 6
12 12 11 9 9 10 9 7 6 8 10 3 1 1 2 1 3 1 0 0 1 1 2 1 0 2 3 1 2 2 4 4 2 1 4 1 3 4 2 4 6 3 2 3 2 7 2
14 13 12 11 9 8 8 7 5 5 7 2 1 2 2 1 3 2 1 2 1 1 2 1 1 1 3 2 2 4 5 1 3 5 5 3 1 8 5 4 10 8 5 2 2 4 1
16 14 13 11 9 8 9 7 6 3 3 2 2 2 3 1 5 2 1 1 2 1 2 2 3 1 2 2 3 4 4 4 1 4 7 9 8 6 5 5 11 4 4 4 5 2 5
18 16 14 13 11 10 10 10 10 7 6 4 1 2 1 2 5 2 4 3 4 2 1 2 2 3 4 2 2 2 3 1 4 4 3 3 8 7 12 8 2 6 2 4 4 5 4
Wind_Direction
35 37 42 47 51 47 48 48 42 62 80 79 81 85 88 83 74 89 105 102 111 93 77 62 50 12 350 62 28 292 330 333 315 359 43 15 60 49 99 102 38 81 95 52 94 86 302
36 36 36 43 42 49 51 54 51 60 81 82 84 93 83 87 89 42 87 82 92 79 33 359 7 353 155 78 256 301 347 359 21 50 29 36 21 36 91 71 77 14 97 131 102 282 338
33 34 36 33 32 37 42 47 52 55 56 67 73 72 89 88 88 105 75 82 80 64 330 355 28 37 58 156 292 312 302 34 10 104 92 36 319 74 9 84 300 90 75 289 211 193 293
31 30 34 32 31 32 40 47 50 48 55 64 53 52 69 66 83 76 71 58 69 7 263 295 357 77 84 279 313 9 359 45 40 55 95 58 40 90 62 102 51 100 65 24 224 350 283
31 29 29 33 26 26 32 40 33 38 40 46 42 47 61 65 65 59 44 39 109 228 262 303 36 100 54 303 19 318 22 1 328 64 57 52 67 102 46 69 22 353 193 196 300 96 322
35 31 30 33 32 22 10 22 27 24 25 25 28 31 35 51 44 40 33 359 318 286 280 258 316 53 14 358 321 313 320 333 57 48 34 46 52 61 29 62 192 258 25 332 335 26 288
38 33 30 27 30 25 23 14 12 15 17 18 16 10 9 9 37 353 6 6 22 3 35 103 32 77 18 322 326 355 336 329 114 42 80 26 69 98 158 54 172 180 6 296 287 17 357
36 32 30 26 21 22 17 17 13 8 9 9 8 357 330 210 226 3 78 59 204 188 64 39 78 64 213 12 20 346 359 49 51 89 65 29 87 233 298 320 282 356 10 325 287 34 345
28 31 27 23 19 16 13 10 9 8 5 4 0 348 320 256 328 41 81 119 291 336 86 9 39 51 308 14 51 332 8 0 71 50 25 118 169 227 299 39 23 53 136 29 242 331 253
29 23 24 21 17 13 8 5 4 3 1 2 5 358 26 182 50 165 52 306 329 16 79 328 357 3 343 46 32 311 348 35 36 115 82 79 309 2 354 137 260 179 45 25 358 35 270
28 26 20 18 14 11 9 6 1 359 354 352 356 352 339 133 165 59 267 319 325 56 68 299 345 303 303 75 153 346 312 35 89 102 83 235 168 201 225 162 40 145 347 57 76 8 37
27 26 23 17 11 6 7 6 2 358 352 344 346 343 358 16 53 316 302 341 46 44 277 358 286 226 94 56 74 201 28 44 71 76 49 135 221 101 187 151 130 320 52 38 48 75 27
22 19 17 13 9 5 4 5 2 359 355 346 336 344 35 39 168 300 8 59 38 87 253 311 45 328 88 18 63 64 101 45 106 71 347 57 128 166 61 30 9 64 51 347 0 9 215
18 15 14 12 8 4 2 3 3 0 360 351 333 339 44 75 321 12 70 50 71 219 160 255 264 295 87 8 13 122 136 92 33 83 104 120 330 192 158 74 170 50 130 146 224 236 265
12 12 10 9 8 6 0 359 0 359 352 349 336 348 32 333 345 63 73 54 181 176 321 169 287 179 30 2 62 14 64 89 50 38 133 143 281 31 44 33 87 20 77 145 113 310 40
7 4 5 5 5 4 3 360 358 357 352 350 57 38 315 315 23 63 73 146 138 332 348 313 281 136 155 173 96 160 156 318 124 57 79 194 43 179 126 51 358 153 291 73 358 155 278
1 0 1 1 0 0 360 360 360 358 350 337 65 48 268 356 60 49 105 155 117 357 37 49 22 50 75 127 111 143 118 329 77 193 2 55 103 300 73 196 179 112 264 222 147 153 183
357 358 358 359 357 356 357 357 356 2 351 68 77 47 283 45 48 45 75 32 263 142 304 348 24 50 63 56 49 81 92 75 20 74 57 316 144 225 240 127 92 190 219 161 123 240 227
350 357 357 359 359 354 353 352 354 357 19 87 68 262 333 78 81 28 230 77 72 62 52 25 74 29 6 59 92 57 80 306 61 47 131 97 323 6 337 351 344 223 233 204 112 76 224
347 353 356 0 2 358 353 351 351 349 352 101 83 25 333 38 100 122 114 124 88 359 88 54 125 24 21 113 56 112 145 137 61 62 113 68 215 180 196 209 160 233 227 213 151 143 211
339 343 354 356 358 2 359 353 349 346 347 72 39 172 193 344 345 3 93 347 135 169 301 56 222 209 122 153 171 197 155 158 184 173 124 122 232 237 256 253 225 230 232 215 201 204 190
326 342 348 355 355 358 4 359 355 349 346 71 82 83 8 259 308 358 3 355 74 167 152 197 161 177 181 179 141 163 151 199 213 164 169 164 271 334 285 267 251 261 242 229 234 237 248
312 325 330 344 350 348 2 7 0 0 3 58 333 352 100 274 352 61 322 338 6 359 351 143 184 74 236 237 194 220 202 193 175 164 194 158 171 40 266 329 325 291 244 207 196 208 216
292 304 312 323 335 335 354 8 11 3 22 109 287 51 60 287 109 143 77 5 330 345 310 329 15 309 335 340 303 240 251 271 258 230 180 154 157 158 270 345 294 245 202 204 216 234 217
265 276 289 302 314 323 337 2 8 10 8 60 360 52 43 291 316 101 137 177 311 256 227 237 27 5 328 324 352 334 314 315 165 74 106 165 141 230 231 241 293 289 215 184 181 286 200
255 257 263 272 287 306 318 328 357 9 7 69 13 162 69 56 264 256 253 195 190 299 356 205 73 3 55 53 20 275 250 244 248 341 16 88 109 161 154 204 244 265 156 115 75 280 77
247 249 251 252 260 279 298 296 312 348 355 60 276 36 98 340 288 356 194 193 205 177 209 168 217 81 56 107 179 212 251 233 226 195 165 131 173 219 234 260 278 261 163 94 134 256 204
247 245 248 246 243 249 262 247 238 257 309 33 298 14 118 221 277 315 336 305 341 167 164 249 34 11 64 177 183 238 218 241 283 181 180 172 161 196 177 219 263 145 76 185 210 204 225
247 248 242 245 242 236 245 232 202 210 212 166 162 304 44 164 248 305 259 234 205 175 151 306 222 172 207 179 256 301 276 251 192 249 156 239 197 190 194 217 215 208 150 219 185 227 254